"Pseudo-MPEC" for C1EUYV5

Created 2026 May 13 5:35:05 UT using Find_Orb

Click here for an explanation of pseudo-MPECs

 
 Astrometry: 
     C1EUYV5*1C2026 04 27.46483017 29 28.788+17 40 02.21   ~4RC5 20.88GVNEOCPV00
     C1EUYV5 1C2026 04 27.47177517 29 28.496+17 40 04.04   ~4RC5       VNEOCPV00
     C1EUYV5 1C2026 04 27.48001817 29 28.122+17 40 06.53   ~4RC5 21.61GVNEOCPV00
     C1EUYV5 1C2026 04 27.48560317 29 27.931+17 40 07.86   ~4RC5 21.66GVNEOCPV00
     C1EUYV5 0C2026 04 28.32668017 28 53.200+17 43 48.10   ~4S8o 21.3 RVNEOCP291
     C1EUYV5 0C2026 04 28.33565017 28 52.780+17 43 50.70   ~4S8o 21.6 RVNEOCP291
     C1EUYV5 1C2026 04 28.33652017 28 52.730+17 43 50.40   ~4S9K       VNEOCPI52
     C1EUYV5 1C2026 04 28.34586017 28 52.367+17 43 53.29   ~4S9K 21.19GVNEOCPI52
     C1EUYV5 1C2026 04 28.35517517 28 52.010+17 43 55.30   ~4S9K       VNEOCPI52
     C1EUYV5 1C2026 04 28.36449817 28 51.604+17 43 58.73   ~4S9K 21.78GVNEOCPI52
     C1EUYV5 0C2026 05 07.24744017 22 20.530+18 20 01.30   ~5775 21.7 RVNEOCP291
     C1EUYV5 0C2026 05 07.25836017 22 20.000+18 20 03.70   ~5775 21.6 RVNEOCP291
     C1EUYV5 1C2026 05 08.32094017 21 30.560+18 23 59.80   ~589Z 21.4 RVNEOCP691
     C1EUYV5 1C2026 05 08.33896017 21 29.570+18 24 04.10   ~589Z 21.4 RVNEOCP691
     C1EUYV5 1C2026 05 08.35249017 21 28.960+18 24 08.10   ~589Zx20.7 RVNEOCP691
     C1EUYV5 0C2026 05 09.27921017 20 45.480+18 27 27.60   ~597Z       VNEOCP291
     C1EUYV5 0C2026 05 09.28840017 20 45.070+18 27 30.10   ~597Z 21.3 RVNEOCP291
     C1EUYV5 0C2026 05 09.29762017 20 44.640+18 27 32.10   ~597Z 21.4 RVNEOCP291
     C1EUYV5 KB2026 05 09.99626 17 20 11.52 +18 30 00.2    ~5A85 21.3 GXNEOCPG00
     C1EUYV5 KB2026 05 10.00210 17 20 11.19 +18 30 02.1    ~5A85 21.4 GXNEOCPG00
     C1EUYV5 KB2026 05 10.00848 17 20 10.91 +18 30 03.4    ~5A85 21.2 GXNEOCPG00
     C1EUYV5 1C2026 05 10.22309017 20 00.700+18 30 49.40   ~5A7K 21.5 RVNEOCP691
     C1EUYV5 1C2026 05 10.23892017 19 59.960+18 30 53.40   ~5A7K 22.2 RVNEOCP691
     C1EUYV5 1C2026 05 10.25473017 19 59.190+18 30 56.40   ~5A7K 21.8 RVNEOCP691
     C1EUYV5 KB2026 05 10.97113 17 19 24.90 +18 33 25.7    ~5B65       XNEOCPM45
     C1EUYV5 KB2026 05 10.98861 17 19 24.08 +18 33 28.8    ~5B65 20.9 GXNEOCPM45
     C1EUYV5 KB2026 05 11.00576 17 19 23.25 +18 33 32.9    ~5B65 20.8 GXNEOCPM45
     C1EUYV5 0C2026 05 11.24769017 19 11.710+18 34 23.20   ~5B75 21.0 RVNEOCP291
     C1EUYV5 0C2026 05 11.25667017 19 11.220+18 34 24.80   ~5B75       VNEOCP291
     C1EUYV5 0C2026 05 11.26565017 19 10.790+18 34 26.80   ~5B75       VNEOCP291
     C1EUYV5 3C2026 05 12.50236817 18 10.927+18 38 37.99   ~5CD5 22.53GVNEOCPT14
     C1EUYV5 3C2026 05 12.50357317 18 10.870+18 38 38.25   ~5CD5 22.69GVNEOCPT14
     C1EUYV5 3C2026 05 12.50477917 18 10.813+18 38 38.49   ~5CD5 22.68GVNEOCPT14

Station data:
(291) LPL/Spacewatch II  (N31.961669 W111.599905)  US/Arizona.  Observers J.
   V. Scotti, R. S. McMillan. 1.8-m f/2.7 reflector + CCD.
(691) Steward Observatory, Kitt Peak - Spacewatch  (N31.962174 W111.600327)
   US/Arizona.  Observer J. V. Scotti. 0.9-m f/3 reflector + CCD.
(G00) AZM Martinsberg, Oed  (N48.381561 E15.126000)  Austria.  Observers M.
   Jaeger, E. Prosperi, S. Prosperi. Measurer M. Jaeger. 0.28-m f/2.2
   reflector + CCD.
(I52) Steward Observatory, Mt. Lemmon Station  (N32.442570 W110.788920)
   US/Arizona. Measurers T. Beuden, V. F. Carvajal, D. Fay, J. B. Fazekas, D.
   C. Fuls, A. R. Gibbs, A. D. Grauer, H. Gröller, J. K. Hogan, R. A.
   Kowalski, S. M. Larson, G. J. Leonard, D. Rankin, R. L. Seaman, F. C.
   Shelly, K. W. Wierzchoś. 1.0-m prime focus + CCD.
(M45) Starhopper Observatory, Sfantu Gheorghe  (N45.865494 E25.768890)
   Romania.  Observer F. Ursache. 0.41-m f/7.5 reflector + CMO.
(T14) Mauna Kea-UH/Tholen NEO Follow-Up (CFHT)  (N19.825252 W155.468876)
   US/Hawaii.  Observer R. Weryk. 3.6-m Canada-France-Hawaii Telescope.
(V00) Kitt Peak-Bok  (N31.963125 W111.600190)  US/Arizona. Measurers T.
   Beuden, V. F. Carvajal, D. Fay, J. B. Fazekas, D. C. Fuls, A. R. Gibbs, A.
   D. Grauer, H. Gröller, J. K. Hogan, R. A. Kowalski, S. M. Larson, G. J.
   Leonard, D. Rankin, R. L. Seaman, F. C. Shelly, K. W. Wierzchoś. 2.25-m
   reflector + 4x4K mosaic CCD.

Orbital elements:  C1EUYV5
   Perihelion 2026 Jul 8.386134 +/- 10.4 TT =  9:16:02.0 (JD 2461229.886134)
Epoch 2026 May 12.0 TT = JDT 2461172.5   Ur: 0.3811              AutoNEOCP
q   7.752875472 +/- 0.00934         (J2000 ecliptic)
H   12.73 G 0.15                    Peri.  101.375601 +/- 0.6
z  -0.0097478895 +/- 0.00273        Node   352.293545 +/- 0.09
e   1.07557417 +/- 0.0212           Incl.  142.565334 +/- 0.0027
32 of 33 observations 2026 Apr. 27-May 12; mean residual 0".40
Residuals in arcseconds: 
260427 V00  .06+  .23-    260507 291  .03-  .60+    260510 691  .11-  .54+    
260427 V00  .01+  .22-    260508 691  .48+  .19+    260510 691  .29-  .18+    
260427 V00  .43-  .10+    260508 691  1.5-  .51+    260510 M45  .11-  .15-    
260427 V00  .16+  .04-    260508 691( 1.1-  1.5+)   260510 M45  .25+  .68-    
260428 291  .33+  .07-    260509 291  .16-  .67-    260511 M45  .25+  .13-    
260428 291  .29-  .18+    260509 291  .23+  .16-    260511 291  .64+  .05+    
260428 I52  .46-  .34-    260509 291  .35+  .16-    260511 291  .15-  .21-    
260428 I52  .04-  .11+    260509 G00  .63+  1.1-    260511 291  .08-  .07-    
260428 I52  .45+  .32-    260510 G00  .09-  .49-    260512 T14  .04-  .01+    
260428 I52  .25+  .68+    260510 G00  .28+  .54-    260512 T14  .01-  .03+    
260507 291  .28+  .67+    260510 691  .37-  .09-    260512 T14  .03+  .03+    

Ephemerides (geocentric):
Date (UTC) HH   RA             Dec           delta  r     elong  mag " sig PA
---- --------  ------------   ------------  ------ ------ -----  --- --------
2026 05 13 06  17 17 34.455   +18 41 05.79  7.0379 7.7612 132.9 21.9 .069  14
2026 05 13 07  17 17 32.416   +18 41 13.94  7.0377 7.7612 132.9 21.9 .072  14
2026 05 13 08  17 17 30.376   +18 41 22.09  7.0374 7.7612 133.0 21.9 .075  14
2026 05 13 09  17 17 28.336   +18 41 30.22  7.0371 7.7612 133.0 21.9 .078  14
2026 05 13 10  17 17 26.294   +18 41 38.34  7.0369 7.7612 133.0 21.9 .081  14
2026 05 13 11  17 17 24.252   +18 41 46.46  7.0366 7.7612 133.0 21.9 .084  14
2026 05 13 12  17 17 22.210   +18 41 54.56  7.0364 7.7612 133.0 21.9 .086  14
2026 05 13 13  17 17 20.167   +18 42 02.66  7.0361 7.7611 133.1 21.9 .089  14
2026 05 13 14  17 17 18.123   +18 42 10.75  7.0359 7.7611 133.1 21.9 .092  14
2026 05 13 15  17 17 16.078   +18 42 18.82  7.0356 7.7611 133.1 21.9 .095  14
2026 05 13 16  17 17 14.033   +18 42 26.89  7.0354 7.7611 133.1 21.9 .098  14
2026 05 13 17  17 17 11.987   +18 42 34.95  7.0351 7.7611 133.1 21.9 .101  14
2026 05 13 18  17 17 09.940   +18 42 43.00  7.0348 7.7611 133.2 21.9 .104  13
2026 05 13 19  17 17 07.892   +18 42 51.05  7.0346 7.7611 133.2 21.9 .107  13
2026 05 13 20  17 17 05.844   +18 42 59.08  7.0343 7.7611 133.2 21.9 .110  13
2026 05 13 21  17 17 03.796   +18 43 07.10  7.0341 7.7610 133.2 21.9 .114  13
2026 05 13 22  17 17 01.746   +18 43 15.12  7.0338 7.7610 133.2 21.9 .117  13
2026 05 13 23  17 16 59.696   +18 43 23.12  7.0336 7.7610 133.3 21.9 .120  13
2026 05 14 00  17 16 57.645   +18 43 31.12  7.0333 7.7610 133.3 21.9 .123  13
2026 05 14 01  17 16 55.594   +18 43 39.10  7.0331 7.7610 133.3 21.9 .126  13
2026 05 14 02  17 16 53.542   +18 43 47.08  7.0328 7.7610 133.3 21.9 .129  13
2026 05 14 03  17 16 51.489   +18 43 55.05  7.0326 7.7610 133.3 21.9 .132  13
2026 05 14 04  17 16 49.435   +18 44 03.01  7.0323 7.7610 133.4 21.9 .135  13
2026 05 14 05  17 16 47.381   +18 44 10.96  7.0321 7.7609 133.4 21.9 .139  13
2026 05 14 06  17 16 45.326   +18 44 18.90  7.0318 7.7609 133.4 21.9 .142  13
2026 05 14 07  17 16 43.271   +18 44 26.83  7.0316 7.7609 133.4 21.9 .145  13
2026 05 14 08  17 16 41.214   +18 44 34.75  7.0313 7.7609 133.4 21.9 .148  13
2026 05 14 09  17 16 39.157   +18 44 42.67  7.0311 7.7609 133.5 21.9 .152  13
2026 05 14 10  17 16 37.100   +18 44 50.57  7.0309 7.7609 133.5 21.9 .155  13
2026 05 14 11  17 16 35.042   +18 44 58.46  7.0306 7.7609 133.5 21.9 .158  13
2026 05 14 12  17 16 32.983   +18 45 06.35  7.0304 7.7609 133.5 21.9 .161  13
2026 05 14 13  17 16 30.923   +18 45 14.22  7.0301 7.7608 133.5 21.9 .165  13
2026 05 14 14  17 16 28.863   +18 45 22.09  7.0299 7.7608 133.5 21.9 .168  13
2026 05 14 15  17 16 26.802   +18 45 29.95  7.0296 7.7608 133.6 21.9 .171  13
2026 05 14 16  17 16 24.740   +18 45 37.80  7.0294 7.7608 133.6 21.9 .175  12
2026 05 14 17  17 16 22.678   +18 45 45.63  7.0291 7.7608 133.6 21.9 .178  12
2026 05 14 18  17 16 20.615   +18 45 53.46  7.0289 7.7608 133.6 21.9 .182  12
2026 05 14 19  17 16 18.552   +18 46 01.28  7.0287 7.7608 133.6 21.9 .185  12
2026 05 14 20  17 16 16.488   +18 46 09.09  7.0284 7.7608 133.7 21.9 .188  12
2026 05 14 21  17 16 14.423   +18 46 16.89  7.0282 7.7607 133.7 21.9 .192  12
2026 05 14 22  17 16 12.357   +18 46 24.69  7.0279 7.7607 133.7 21.9 .195  12
2026 05 14 23  17 16 10.291   +18 46 32.47  7.0277 7.7607 133.7 21.9 .199  12
2026 05 15 00  17 16 08.224   +18 46 40.24  7.0275 7.7607 133.7 21.9 .202  12
2026 05 15 01  17 16 06.157   +18 46 48.01  7.0272 7.7607 133.8 21.9 .206  12
2026 05 15 02  17 16 04.089   +18 46 55.76  7.0270 7.7607 133.8 21.9 .209  12
2026 05 15 03  17 16 02.020   +18 47 03.50  7.0267 7.7607 133.8 21.9 .213  12
2026 05 15 04  17 15 59.951   +18 47 11.24  7.0265 7.7607 133.8 21.9 .216  12
2026 05 15 05  17 15 57.880   +18 47 18.97  7.0263 7.7607 133.8 21.9 .220  12